Weather History for Pinedale, WY

Change the Weather History Date:

Wednesday, March 28, 2012

  Actual Average (KBPI) Record (KBPI)
Temperature  
Mean Temperature 36 °F 32 °F  
Max Temperature 51 °F 46 °F 57 °F (2012)
Min Temperature 21 °F 18 °F 3 °F (2008)
Degree Days  
Heating Degree Days 29 33  
Month to date heating degree days 1075  
Since 1 July heating degree days 8598  
Cooling Degree Days 0 0  
Month to date cooling degree days 0  
Year to date cooling degree days 0  
Moisture  
Dew Point 24 °F    
Average Humidity 72    
Maximum Humidity 100    
Minimum Humidity 30    
Precipitation  
Precipitation 0.00 in 0.02 in 0.87 in (1990)
Month to date precipitation 0.38  
Year to date precipitation 1.04  
Sea Level Pressure  
Sea Level Pressure 29.99 in    
Wind  
Wind Speed 5 mph (West)    
Max Wind Speed 22 mph    
Max Gust Speed 28 mph    
Visibility 10 miles    
Events      
T = Trace of Precipitation, MM = Missing Value Source: NWS Daily Summary

Daily Weather History Graph

Daily Weather History Graph

Search for Another Location

Airport:

Trip Planner

Search our weather history database for the weather conditions in past years. The results will help you decide how hot, cold, wet, or windy it might be!

Date:

Astronomy

Mar. 28, 2012 Rise Set
Actual Time 7:07 AM MDT 7:41 PM MDT
Civil Twilight 6:39 AM MDT 8:09 PM MDT
Nautical Twilight 6:05 AM MDT 8:43 PM MDT
Astronomical Twilight 5:30 AM MDT 9:18 PM MDT
Moon 10:19 AM MDT (3/28) 12:53 AM MDT (3/28)
Length of Visible Light 13h 30m
Length of Day
12h 34m
Waxing Crescent, 31% of the Moon is Illuminated
Mar 28
Waxing Crescent
Mar 30
First Quarter
Apr 6
Full
Apr 13
Last Quarter
Apr 21
New

Hourly Weather History & Observations

Time (MDT) Temp. Windchill Dew Point Humidity Pressure Visibility Wind Dir Wind Speed Gust Speed Precip Events Conditions
12:15 AM 26.6 °F 21.2 °F 26.6 °F 100% 30.04 in 10.0 mi WNW 4.6 mph - N/A   Clear
12:35 AM 26.6 °F 21.2 °F 24.8 °F 93% 30.05 in 10.0 mi West 4.6 mph - N/A   Scattered Clouds
12:55 AM 26.6 °F 22.6 °F 24.8 °F 93% 30.03 in 10.0 mi NW 3.5 mph - N/A   Scattered Clouds
1:15 AM 26.6 °F 20.0 °F 24.8 °F 93% 30.03 in 10.0 mi NNW 5.8 mph - N/A   Clear
1:35 AM 24.8 °F 16.9 °F 23.0 °F 93% 30.03 in 10.0 mi WSW 6.9 mph - N/A   Clear
1:55 AM 24.8 °F 17.9 °F 23.0 °F 93% 30.03 in 10.0 mi West 5.8 mph - N/A   Clear
2:15 AM 24.8 °F 17.9 °F 23.0 °F 93% 30.03 in 10.0 mi WNW 5.8 mph - N/A   Scattered Clouds
2:35 AM 26.6 °F 20.0 °F 24.8 °F 93% 30.03 in 10.0 mi WNW 5.8 mph - N/A   Overcast
2:55 AM 24.8 °F 19.1 °F 23.0 °F 93% 30.02 in 10.0 mi WNW 4.6 mph - N/A   Mostly Cloudy
3:15 AM 24.8 °F 19.1 °F 23.0 °F 93% 30.02 in 10.0 mi WNW 4.6 mph - N/A   Scattered Clouds
3:35 AM 24.8 °F 19.1 °F 23.0 °F 93% 30.01 in 10.0 mi WNW 4.6 mph - N/A   Clear
3:55 AM 24.8 °F 19.1 °F 23.0 °F 93% 30.01 in 10.0 mi WNW 4.6 mph - N/A   Clear
4:15 AM 23.0 °F 18.4 °F 23.0 °F 100% 30.00 in 10.0 mi NW 3.5 mph - N/A   Scattered Clouds
4:35 AM 23.0 °F 15.8 °F 23.0 °F 100% 30.00 in 10.0 mi NW 5.8 mph - N/A   Scattered Clouds
4:55 AM 23.0 °F 17.0 °F 21.2 °F 93% 30.00 in 10.0 mi WNW 4.6 mph - N/A   Clear
5:15 AM 23.0 °F 17.0 °F 21.2 °F 93% 30.00 in 10.0 mi WNW 4.6 mph - N/A   Clear
5:35 AM 23.0 °F 17.0 °F 23.0 °F 100% 30.00 in 10.0 mi NW 4.6 mph - N/A   Scattered Clouds
5:55 AM 23.0 °F 17.0 °F 21.2 °F 93% 30.00 in 10.0 mi WNW 4.6 mph - N/A   Scattered Clouds
6:15 AM 23.0 °F 15.8 °F 21.2 °F 93% 30.00 in 10.0 mi WNW 5.8 mph - N/A   Mostly Cloudy
6:35 AM 23.0 °F 18.4 °F 21.2 °F 93% 30.00 in 10.0 mi West 3.5 mph - N/A   Scattered Clouds
6:55 AM 23.0 °F 18.4 °F 21.2 °F 93% 30.00 in 10.0 mi West 3.5 mph - N/A   Clear
7:15 AM 21.2 °F 16.4 °F 21.2 °F 100% 30.00 in 10.0 mi West 3.5 mph - N/A   Clear
7:35 AM 23.0 °F - 23.0 °F 100% 30.00 in 10.0 mi Calm Calm - N/A   Mostly Cloudy
7:55 AM 23.0 °F 18.4 °F 23.0 °F 100% 30.00 in 10.0 mi West 3.5 mph - N/A   Scattered Clouds
8:15 AM 24.8 °F - 23.0 °F 93% 30.01 in 10.0 mi Calm Calm - N/A   Clear
8:35 AM 28.4 °F 24.6 °F 26.6 °F 93% 30.01 in 10.0 mi North 3.5 mph - N/A   Scattered Clouds
8:55 AM 30.2 °F - 26.6 °F 86% 30.01 in 10.0 mi Calm Calm - N/A   Scattered Clouds
9:15 AM 30.2 °F 26.7 °F 26.6 °F 86% 30.01 in 10.0 mi West 3.5 mph - N/A   Mostly Cloudy
9:35 AM 30.2 °F 26.7 °F 28.4 °F 93% 30.01 in 10.0 mi West 3.5 mph - N/A   Overcast
9:55 AM 32.0 °F - 28.4 °F 87% 30.00 in 10.0 mi Calm Calm - N/A   Overcast
10:15 AM 32.0 °F 28.7 °F 28.4 °F 87% 30.01 in 10.0 mi West 3.5 mph - N/A   Scattered Clouds
10:35 AM 32.0 °F - 26.6 °F 80% 30.01 in 10.0 mi Calm Calm - N/A   Mostly Cloudy
10:55 AM 35.6 °F 32.8 °F 28.4 °F 75% 30.01 in 10.0 mi East 3.5 mph - N/A   Overcast
11:15 AM 39.2 °F 33.6 °F 30.2 °F 70% 30.01 in 10.0 mi ESE 8.1 mph - N/A   Overcast
11:35 AM 41.0 °F 36.4 °F 26.6 °F 57% 30.00 in 10.0 mi SSE 6.9 mph - N/A   Overcast
11:55 AM 42.8 °F 38.0 °F 26.6 °F 53% 30.00 in 10.0 mi SSE 8.1 mph - N/A   Overcast
12:15 PM 42.8 °F 40.1 °F 26.6 °F 53% 30.00 in 10.0 mi SSE 4.6 mph - N/A   Overcast
12:35 PM 44.6 °F 41.4 °F 21.2 °F 39% 29.99 in 10.0 mi SSE 5.8 mph - N/A   Overcast
12:55 PM 46.4 °F 45.2 °F 19.4 °F 34% 29.98 in 10.0 mi SSE 3.5 mph - N/A   Overcast
1:15 PM 50.0 °F - 19.4 °F 30% 29.97 in 10.0 mi SSE 4.6 mph - N/A   Mostly Cloudy
1:35 PM 50.0 °F - 19.4 °F 30% 29.97 in 10.0 mi Calm Calm - N/A   Scattered Clouds
1:55 PM 51.8 °F - 21.2 °F 30% 29.95 in 10.0 mi WSW 3.5 mph - N/A   Mostly Cloudy
2:15 PM 50.0 °F - 21.2 °F 32% 29.95 in 10.0 mi South 4.6 mph - N/A   Overcast
2:35 PM 50.0 °F - 19.4 °F 30% 29.94 in 10.0 mi SW 4.6 mph - N/A   Overcast
2:55 PM 46.4 °F 42.4 °F 21.2 °F 37% 29.93 in 10.0 mi NE 8.1 mph 18.4 mph N/A   Overcast
3:15 PM 48.2 °F - 23.0 °F 37% 29.93 in 10.0 mi NNE 6.9 mph - N/A   Overcast
3:35 PM 50.0 °F - 23.0 °F 35% 29.93 in 10.0 mi ESE 3.5 mph - N/A   Overcast
3:55 PM 48.2 °F - 21.2 °F 34% 29.93 in 10.0 mi West 10.4 mph - N/A   Overcast
4:15 PM 46.4 °F 40.7 °F 21.2 °F 37% 29.94 in 10.0 mi SSW 12.7 mph 26.5 mph N/A   Overcast
4:35 PM 46.4 °F 41.5 °F 23.0 °F 40% 29.94 in 10.0 mi WSW 10.4 mph 27.6 mph N/A   Overcast
4:55 PM 46.4 °F 44.3 °F 23.0 °F 40% 29.93 in 10.0 mi SW 4.6 mph - N/A   Overcast
5:15 PM 46.4 °F 41.5 °F 23.0 °F 40% 29.93 in 10.0 mi West 10.4 mph 19.6 mph N/A   Overcast
5:35 PM 44.6 °F 36.1 °F 28.4 °F 53% 29.95 in 10.0 mi WSW 21.9 mph 27.6 mph N/A   Overcast
5:55 PM 44.6 °F 37.2 °F 28.4 °F 53% 29.97 in 10.0 mi WSW 17.3 mph 24.2 mph N/A   Overcast
6:15 PM 42.8 °F 37.0 °F 28.4 °F 57% 29.97 in 10.0 mi SW 10.4 mph 18.4 mph N/A   Overcast
6:35 PM 42.8 °F 38.0 °F 26.6 °F 53% 29.97 in 10.0 mi WSW 8.1 mph 21.9 mph N/A   Overcast
6:55 PM 42.8 °F 39.3 °F 28.4 °F 57% 29.97 in 10.0 mi SW 5.8 mph - N/A   Overcast
7:15 PM 41.0 °F 38.0 °F 28.4 °F 61% 29.97 in 10.0 mi WSW 4.6 mph - N/A   Overcast
7:35 PM 41.0 °F 38.0 °F 30.2 °F 65% 29.97 in 10.0 mi SW 4.6 mph - N/A   Overcast
7:55 PM 41.0 °F - 30.2 °F 65% 29.97 in 10.0 mi Calm Calm - N/A   Overcast
8:15 PM 37.4 °F 34.9 °F 30.2 °F 75% 29.97 in 10.0 mi ESE 3.5 mph - N/A   Overcast
8:35 PM 39.2 °F 34.2 °F 30.2 °F 70% 29.97 in 10.0 mi SE 6.9 mph - N/A   Overcast
8:55 PM 37.4 °F 32.8 °F 30.2 °F 75% 29.98 in 10.0 mi ESE 5.8 mph - N/A   Overcast
9:15 PM 37.4 °F 32.8 °F 30.2 °F 75% 29.98 in 10.0 mi ESE 5.8 mph - N/A   Overcast
9:35 PM 37.4 °F 32.8 °F 30.2 °F 75% 29.98 in 10.0 mi East 5.8 mph - N/A   Overcast
9:55 PM 35.6 °F 31.7 °F 30.2 °F 81% 29.98 in 10.0 mi East 4.6 mph - N/A   Overcast
10:15 PM 35.6 °F 32.8 °F 30.2 °F 81% 29.98 in 10.0 mi East 3.5 mph - N/A   Overcast
10:35 PM 35.6 °F 31.7 °F 30.2 °F 81% 29.97 in 10.0 mi ESE 4.6 mph - N/A   Overcast
10:55 PM 35.6 °F 31.7 °F 30.2 °F 81% 29.97 in 10.0 mi ESE 4.6 mph - N/A   Overcast
11:15 PM 35.6 °F - 30.2 °F 81% 29.97 in 10.0 mi Calm Calm - N/A   Overcast
11:35 PM 37.4 °F 32.8 °F 30.2 °F 75% 29.98 in 10.0 mi SSW 5.8 mph - N/A   Overcast
11:55 PM 37.4 °F 32.8 °F 30.2 °F 75% 29.98 in 10.0 mi South 5.8 mph - N/A   Overcast